User: anonymous   Login
Location: Caltech
(34.1382°N, 118.1253°W)
Time: 22:21:09
(UTC-08:00)
Language:

Gbstr 26 Del rocket - Orbit

View from above orbital plane
View from above orbital plane
View from above satellite
View from above satellite

Ground track
Ground track

The orbit data is extracted from the following two-line orbital elements,

1 25876U 99041E   17345.50347876 -.00000149 +00000-0 +14882-4 0  9993
2 25876 051.7659 337.2430 0531386 184.8073 174.7628 14.04158006939513
Epoch (UTC): 11 December 2017 12:05:00
Eccentricity: 0.0531386
inclination: 51.7659°
perigee height: 494 km
apogee height: 1265 km
right ascension of ascending node: 337.2430°
argument of perigee: 184.8073°
revolutions per day: 14.04158006
mean anomaly at epoch: 174.7628°
orbit number at epoch: 93951

The dashed part of the orbit path shows where the satellite is in the earth's shadow,  

DLR